Weather History for KGFL - November, 2013

Change the Weather History Date:

Saturday, November 2, 2013

  Actual Average Record
Temperature  
Mean Temperature 46 °F 41 °F  
Max Temperature 59 °F 52 °F 78 °F (1982)
Min Temperature 33 °F 31 °F 14 °F (2002)
Degree Days  
Heating Degree Days 19 24  
Month to date heating degree days 25 47  
Since 1 July heating degree days 794 902  
Cooling Degree Days 0 0  
Month to date cooling degree days 0 0  
Year to date cooling degree days 537 352  
Moisture  
Dew Point 39 °F    
Average Humidity 78    
Maximum Humidity 100    
Minimum Humidity 55    
Precipitation  
Precipitation T in 0.12 in 1.54 in (1969)
Month to date precipitation 0.77 0.23  
Year to date precipitation 30.68 32.93  
Sea Level Pressure  
Sea Level Pressure 29.70 in    
Wind  
Wind Speed 6 mph (East)    
Max Wind Speed 18 mph    
Max Gust Speed 24 mph    
Visibility 8 miles    
Events Rain    
T = Trace of Precipitation, MM = Missing Value Source: NWS Daily Summary

Daily Weather History Graph

Daily Weather History Graph

Search for Another Location

Airport or City:

Trip Planner

Search our weather history database for the weather conditions in past years. The results will help you decide how hot, cold, wet, or windy it might be!

Date:

Astronomy

Nov. 02, 2013 Rise Set
Actual Time 7:31 AM EDT 5:44 PM EDT
Civil Twilight 7:01 AM EDT 6:14 PM EDT
Nautical Twilight 6:27 AM EDT 6:47 PM EDT
Astronomical Twilight 5:54 AM EDT 7:20 PM EDT
Moon 6:24 AM EDT (11/2) 5:14 PM EDT (11/2)
Length of Visible Light 11h 12m
Length of Day
10h 13m
Waning Crescent, 1% of the Moon is Illuminated
Nov 2
Waning Crescent
Nov 3
New
Nov 10
First Quarter
Nov 17
Full
Nov 25
Last Quarter

Hourly Weather History & Observations

Time (EDT) Temp. Windchill Dew Point Humidity Pressure Visibility Wind Dir Wind Speed Gust Speed Precip Events Conditions
12:53 AM 48.9 °F - 41.0 °F 74% 29.67 in 10.0 mi South 6.9 mph - N/A   Clear
1:53 AM 45.0 °F - 39.9 °F 82% 29.67 in 10.0 mi Calm Calm - N/A   Clear
2:53 AM 39.0 °F 36.8 °F 37.0 °F 93% 29.66 in 10.0 mi WSW 3.5 mph - N/A   Clear
3:53 AM 39.0 °F - 37.9 °F 96% 29.65 in 6.0 mi Calm Calm - N/A   Clear
4:53 AM 36.0 °F - 35.1 °F 97% 29.65 in 2.0 mi Calm Calm - N/A   Clear
5:00 AM 35.6 °F - 35.6 °F 100% 29.64 in 1.2 mi Calm Calm - N/A   Clear
5:08 AM 35.6 °F - 33.8 °F 93% 29.64 in 4.0 mi Calm Calm - N/A   Clear
5:53 AM 34.0 °F - 34.0 °F 100% 29.66 in 6.0 mi Calm Calm - N/A   Clear
6:44 AM 35.6 °F - 33.8 °F 93% 29.66 in 2.0 mi Calm Calm - N/A   Partly Cloudy
6:53 AM 35.1 °F - 34.0 °F 96% 29.67 in 6.0 mi Calm Calm - N/A   Partly Cloudy
7:53 AM 35.1 °F - 33.1 °F 92% 29.69 in 9.0 mi Calm Calm - N/A   Clear
8:53 AM 41.0 °F - 39.9 °F 96% 29.69 in 7.0 mi Calm Calm - N/A   Mostly Cloudy
9:53 AM 48.0 °F - 42.1 °F 80% 29.68 in 10.0 mi Calm Calm - N/A   Overcast
10:53 AM 51.1 °F - 42.1 °F 71% 29.68 in 4.0 mi Calm Calm - N/A   Haze
11:53 AM 52.0 °F - 42.1 °F 69% 29.66 in 10.0 mi South 4.6 mph - N/A   Overcast
12:53 PM 55.0 °F - 42.1 °F 62% 29.64 in 10.0 mi South 8.1 mph - N/A   Overcast
1:53 PM 57.0 °F - 42.1 °F 57% 29.63 in 10.0 mi SSE 5.8 mph - N/A   Mostly Cloudy
2:53 PM 57.9 °F - 43.0 °F 58% 29.63 in 10.0 mi SSE 8.1 mph - N/A   Overcast
3:53 PM 57.0 °F - 43.0 °F 59% 29.63 in 10.0 mi South 8.1 mph - N/A   Overcast
4:53 PM 57.9 °F - 41.0 °F 53% 29.65 in 10.0 mi West 4.6 mph - N/A   Overcast
5:53 PM 55.0 °F - 41.0 °F 59% 29.68 in 10.0 mi WNW 6.9 mph - N/A   Overcast
6:34 PM 46.4 °F 41.1 °F 42.8 °F 87% 29.69 in 10.0 mi ENE 11.5 mph - N/A   Overcast
6:53 PM 46.0 °F 41.4 °F 43.0 °F 89% 29.73 in 10.0 mi ENE 9.2 mph - 0.00 in Rain Light Rain
7:29 PM 44.6 °F 38.4 °F 42.8 °F 93% 29.74 in 10.0 mi ENE 12.7 mph - N/A   Overcast
7:53 PM 45.0 °F 37.4 °F 42.1 °F 90% 29.78 in 10.0 mi NE 18.4 mph 23.0 mph N/A   Overcast
8:08 PM 44.6 °F 39.7 °F 41.0 °F 87% 29.77 in 10.0 mi NE 9.2 mph 23.0 mph N/A   Overcast
8:53 PM 42.1 °F 34.5 °F 37.9 °F 85% 29.81 in 10.0 mi NE 15.0 mph 24.2 mph 0.00 in Rain Light Rain
9:53 PM 41.0 °F 35.8 °F 37.0 °F 86% 29.85 in 10.0 mi NE 8.1 mph - 0.00 in Rain Light Rain
10:53 PM 41.0 °F 33.5 °F 35.1 °F 79% 29.86 in 10.0 mi NNE 13.8 mph - 0.00 in   Overcast
11:53 PM 41.0 °F 33.9 °F 34.0 °F 76% 29.88 in 10.0 mi NNE 12.7 mph - N/A   Overcast